Regional Weather Roundup
Issued by NWS Charleston, SC

Current Version | Previous Version | Graphics & Text | Print | Product List | Glossary Off
Versions: 1 2 3 4 5 6 7 8 9 10 11 12 13 14 15 16 17 18 19 20 21 22 23 24 25 26 27 28 29 30 31 32 33 34 35 36 37 38 39 40 41 42 43 44 45 46 47 48 49 50

000
ASUS42 KCHS 182125
RWRCHS

REGIONAL WEATHER ROUNDUP
NATIONAL WEATHER SERVICE CHARLESTON SC
500 PM EDT FRI APR 18 2014

NOTE: "FAIR" INDICATES FEW OR NO CLOUDS BELOW 12,000 FEET WITH NO
SIGNIFICANT WEATHER AND/OR OBSTRUCTIONS TO VISIBILITY.

NOT ALL STATIONS ARE QUALITY CONTROLLED BY THE NATIONAL
WEATHER SERVICE. USE DATA WITH CAUTION...ESPECIALLY
DEWPOINT OBSERVATIONS.

SCZ027-030-031-034>040-042>050-182200-
...SOUTH CAROLINA...

CITY           SKY/WX    TMP DP  RH WIND       PRES   REMARKS
N CHARLESTON   RAIN      61  55  82 NE10      30.14S FOG
WATERFRONT PRK   N/A     59 N/A N/A NE24        N/A
FORT JOHNSON     N/A     57  57 100 NE14G25   30.16F
MOUNT PLEASANT LGT RAIN N/A N/A N/A NE7       30.13F
JOHNS ISLAND   HVY RAIN  59  57  94 NE16G22   30.14R VSB 1
PINOPOLIS        N/A     63  57  82 E13       30.06F
MONCKS CORNER  RAIN      63  61  94 NE7       30.15S
SUMMERVILLE    RAIN      57  57 100 N7        30.13F
BEAUFORT MCAS  HVY RAIN  60  57  89 E14       30.08S FOG
BEAUFORT ARPT  RAIN      59  59 100 NE17G26   30.08S
HILTON HEAD IS HVY RAIN  57  57 100 N15G24    30.07F
GEORGETOWN     NOT AVBL
WALTERBORO     LGT RAIN  55 N/A N/A NE9G16    30.14R
ORANGEBURG     RAIN      54  50  86 NE10      30.18F FOG
BARNWELL       HVY RAIN  54  52  94 NE15      30.16F
AIKEN          LGT RAIN  54  54 100 NE12G17   30.20F
MANNING        CLOUDY    59 N/A N/A N5        30.18S
KINGSTREE      NOT AVBL
COLUMBIA       RAIN      56  52  86 NE7       30.19F FOG
SUMTER         LGT RAIN  57  51  80 N7        30.19R
FLORENCE       CLOUDY    61  47  59 NE7       30.22R
MYRTLE BEACH   CLOUDY    64  52  63 E13G18    30.20R
N MYRTLE BEACH CLOUDY    64  51  62 NE13      30.20S

$$

GAZ063-065-086>088-099>101-113>116-118-119-134-136>141-150-182200-
...GEORGIA...

CITY           SKY/WX    TMP DP  RH WIND       PRES   REMARKS
SAVANNAH ARPT  HVY RAIN  57  55  94 N12       30.06S FOG
HUNTER AAF     HVY RAIN  59  59 100 NE8       30.02F FOG
FORT STEWART   LGT RAIN  57  57 100 N13       30.03F
STATESBORO     NOT AVBL
SYLVANIA       RAIN      55  53  91 NE14      30.10F
CLAXTON        HVY RAIN  55  55 100 N6        30.08S
THOMSON        CLOUDY    51  51 100 NE12      30.21F
AUGUSTA-BUSH   HVY RAIN  54  50  86 NE9       30.17F FOG
AUGUSTA-DANIEL LGT RAIN  54  52  93 N12       30.17F
SWAINSBORO     RAIN      52  52 100 NE7G16    30.11S
VIDALIA        RAIN      54  52  94 NE31      30.08F
ALMA           LGT RAIN  56  52  86 VRB5      30.03F
WAYCROSS       NOT AVBL
JESUP          HVY RAIN  55  55 100 NE7       30.04R
BRUNSWICK      CLOUDY    63  61  94 N17G24    29.97F
SAINT SIMONS   RAIN      62  61  96 N8        29.98S FOG

$$

SCZ027-028-034-036>038-045-046-048>050-GAZ119-141-182200-
...LAKE AND SUPPLEMENTAL COASTAL OBSERVATIONS...

STATION/POSITION TIME  TEMP    WIND        PRES    WAVE   SWELL
                       AIR SEA DIR/SP/G            HT/PER HT/PER/DIR
                 (UTC) (F)     (DEG/KT/KT) (MB)    (FT/S) (FT/S/D)
UPR LAKE MARION  NOT AVBL
WINYAH BAY       2100   61      60/ 16     1021.0S
LAKE MURRAY      2000   58      40/  2/  5 1022.4F
ACE BASIN NERRS  2100   59      30/  3     1019.0S
FORT PULASKI     2100   60 59   40/ 24/ 32 1016.9F
SAPELO ISLAND    2100   61     360/ 18     1015.0F

$$

ANZ835-935-AMZ111-154-330-350-352-354-374-450-454-472-182200-
...C-MAN AND BUOY OBSERVATIONS...

STATION/POSITION TIME  TEMP    WIND        PRES    WAVE   SWELL
                       AIR SEA DIR/SP/G            HT/PER HT/PER/DIR
                 (UTC) (F)     (DEG/KT/KT) (MB)    (FT/S) (FT/S/D)
FOLLY BEACH CMAN 2100   60      50/ 26/ 32 1020.5F
BUOY 41004       NOT AVBL
BUOY 41008       2100   67 65  120/ 17/ 23 1014.6F   8/ 7   2/110/10
5E ST. MARYS GA  2100      64                N/A     6/ 7   2/ 80/11
FRYING PAN BUOY  2100   62 64   70/ 23/ 29 1021.2F   8/ 6   3/120/ 9
BUOY 41025       NOT AVBL
CAPE LOOKOUT NC  2100   56      30/ 24/ 27 1023.6F
BUOY 41002       NOT AVBL
BUOY 41010       2100   76 76  130/ 16/ 17 1017.5S   8/10   7/ 60/10
BUOY 41012       NOT AVBL
ST AUGUSTINE FL  2100   67     180/  7/  8 1015.1F
CAPERS NEARSHORE 2000           70/ 25/ 29   N/A
FRIPP NEARSHORE  2000   59      60/ 21/ 31   N/A


$$



USA.gov is the U.S. government's official web portal to all federal, state and local government web resources and services.